This is the latest recevied weather packets stored in our database for station/object KJ4RDP-13. If no packets are shown the sender has not sent any weather packets the latest 10 day(s).
| Time | Temp. | Humidity | Pressure | Rain* | Wind** | Luminosity | Snow |
|---|---|---|---|---|---|---|---|
| 1777934924 | 21.11° C | 44% | 1013.8 hPa | 0 mm | - | 168 W/m² | - |
| 1777934621 | 21.11° C | 44% | 1013.8 hPa | 0 mm | - | 159 W/m² | - |
| 1777934318 | 21.11° C | 44% | 1013.8 hPa | 0 mm | - | 163 W/m² | - |
| 1777934013 | 21.67° C | 42% | 1013.8 hPa | 0 mm | - | 177 W/m² | - |
| 1777933710 | 21.67° C | 44% | 1013.8 hPa | 0 mm | - | 201 W/m² | - |
| 1777933407 | 21.67° C | 43% | 1013.8 hPa | 0 mm | - | 242 W/m² | - |
| 1777933106 | 21.67° C | 40% | 1013.8 hPa | 0 mm | - | 232 W/m² | - |
| 1777932802 | 21.67° C | 42% | 1013.8 hPa | 0 mm | - | 314 W/m² | - |
| 1777932499 | 21.67° C | 42% | 1013.8 hPa | 0 mm | - | 280 W/m² | - |
| 1777932196 | 21.11° C | 40% | 1014.2 hPa | 0 mm | - | 330 W/m² | - |
| 1777931893 | 20.56° C | 41% | 1013.8 hPa | 0 mm | - | 283 W/m² | - |
| 1777931589 | 20.56° C | 41% | 1013.8 hPa | 0 mm | - | 299 W/m² | - |
| 1777931285 | 20.56° C | 41% | 1013.8 hPa | 0 mm | - | 175 W/m² | - |
| 1777930982 | 20.56° C | 42% | 1013.8 hPa | 0 mm | - | 180 W/m² | - |
| 1777930679 | 20.56° C | 41% | 1013.8 hPa | 0 mm | - | 178 W/m² | - |
| 1777930375 | 20.56° C | 41% | 1013.8 hPa | 0 mm | - | 206 W/m² | - |
| 1777930072 | 20.56° C | 41% | 1013.8 hPa | 0 mm | - | 201 W/m² | - |
| 1777929768 | 20.56° C | 41% | 1014.2 hPa | 0 mm | - | 167 W/m² | - |
| 1777929466 | 20.56° C | 43% | 1013.8 hPa | 0 mm | - | 153 W/m² | - |
| 1777929162 | 21.11° C | 40% | 1013.8 hPa | 0 mm | - | 161 W/m² | - |
| 1777928860 | 21.11° C | 44% | 1013.8 hPa | 0 mm | - | 176 W/m² | - |
| 1777928557 | 21.11° C | 44% | 1014.2 hPa | 0 mm | - | 183 W/m² | - |
| 1777928253 | 21.11° C | 43% | 1013.8 hPa | 0 mm | - | 186 W/m² | - |
| 1777927951 | 21.11° C | 42% | 1013.8 hPa | 0 mm | - | 196 W/m² | - |
| 1777927649 | 21.67° C | 42% | 1013.8 hPa | 0 mm | - | 218 W/m² | - |
* Rain latest hour (hover to see other rain measurements)
** Current wind speed in m/s (hover to see current wind gust speed)